TimeCST,TemperatureF,Dew PointF,Humidity,Sea Level PressureIn,VisibilityMPH,Wind Direction,Wind SpeedMPH,Gust SpeedMPH,PrecipitationIn,Events,Conditions,WindDirDegrees,DateUTC
12:53 AM,34.0,30.9,89,30.25,8.0,East,5.8,-,N/A,,Overcast,100,2012-11-04 05:53:00
1:03 AM,33.8,30.2,87,30.20,8.0,East,6.9,-,N/A,,Overcast,90,2012-11-04 06:03:00
1:53 AM,34.0,30.0,85,30.25,10.0,East,4.6,-,N/A,,Overcast,100,2012-11-04 06:53:00
1:04 AM,35.6,30.2,81,30.20,10.0,East,6.9,-,N/A,,Overcast,90,2012-11-04 07:04:00
1:53 AM,34.0,30.0,85,30.26,10.0,East,4.6,-,N/A,,Overcast,100,2012-11-04 07:53:00
2:53 AM,34.0,28.9,82,30.26,10.0,ESE,5.8,-,N/A,,Overcast,120,2012-11-04 08:53:00
3:43 AM,35.6,28.4,75,30.20,10.0,East,4.6,-,N/A,,Overcast,100,2012-11-04 09:43:00
3:53 AM,34.0,28.9,82,30.25,10.0,East,6.9,-,N/A,,Overcast,100,2012-11-04 09:53:00
4:53 AM,35.1,28.9,78,30.25,10.0,ENE,4.6,-,N/A,,Overcast,70,2012-11-04 10:53:00
5:28 AM,33.8,30.2,87,30.20,10.0,East,4.6,-,N/A,,Overcast,90,2012-11-04 11:28:00
5:53 AM,34.0,28.9,82,30.25,10.0,East,4.6,-,N/A,,Overcast,80,2012-11-04 11:53:00
6:53 AM,34.0,28.9,82,30.25,10.0,East,5.8,-,N/A,,Overcast,90,2012-11-04 12:53:00
7:53 AM,34.0,28.0,79,30.25,10.0,East,6.9,-,N/A,,Overcast,100,2012-11-04 13:53:00
8:27 AM,33.8,28.4,81,30.19,10.0,East,6.9,-,N/A,,Overcast,100,2012-11-04 14:27:00
8:36 AM,33.8,28.4,81,30.19,10.0,ESE,6.9,-,N/A,,Overcast,110,2012-11-04 14:36:00
8:45 AM,33.8,28.4,81,30.18,10.0,East,6.9,-,N/A,,Overcast,100,2012-11-04 14:45:00
8:53 AM,34.0,28.0,79,30.24,10.0,ESE,5.8,-,N/A,,Overcast,110,2012-11-04 14:53:00
9:53 AM,35.1,28.0,76,30.22,10.0,East,8.1,-,N/A,,Overcast,100,2012-11-04 15:53:00
10:53 AM,36.0,28.9,76,30.22,10.0,ESE,9.2,-,N/A,,Overcast,120,2012-11-04 16:53:00
11:53 AM,37.0,30.0,76,30.21,10.0,East,8.1,-,N/A,,Overcast,100,2012-11-04 17:53:00
12:53 PM,37.0,28.9,73,30.20,10.0,ESE,10.4,-,N/A,,Overcast,110,2012-11-04 18:53:00
1:53 PM,37.0,28.9,73,30.19,10.0,East,8.1,-,N/A,,Overcast,100,2012-11-04 19:53:00
2:53 PM,37.0,28.9,73,30.19,10.0,East,5.8,-,N/A,,Overcast,100,2012-11-04 20:53:00
3:53 PM,37.0,28.9,73,30.19,10.0,East,8.1,-,N/A,,Overcast,80,2012-11-04 21:53:00
4:53 PM,37.0,28.0,70,30.19,10.0,ENE,6.9,-,N/A,,Overcast,70,2012-11-04 22:53:00
5:53 PM,37.0,28.9,73,30.20,10.0,NE,6.9,-,N/A,,Overcast,50,2012-11-04 23:53:00
6:53 PM,37.9,28.9,70,30.21,10.0,ENE,4.6,-,N/A,,Overcast,60,2012-11-05 00:53:00
7:53 PM,37.0,30.0,76,30.20,10.0,NE,6.9,-,N/A,,Overcast,40,2012-11-05 01:53:00
8:53 PM,37.0,28.0,70,30.21,10.0,NE,5.8,-,N/A,,Overcast,50,2012-11-05 02:53:00
9:53 PM,37.9,28.0,68,30.21,10.0,NE,6.9,-,N/A,,Overcast,50,2012-11-05 03:53:00
10:53 PM,37.0,27.0,67,30.21,10.0,NE,5.8,-,N/A,,Overcast,40,2012-11-05 04:53:00